Date,TemperatureHighF,TemperatureAvgF,TemperatureLowF,DewpointHighF,DewpointAvgF,DewpointLowF,HumidityHigh,HumidityAvg,HumidityLow,PressureMaxIn,PressureMinIn,WindSpeedMaxMPH,WindSpeedAvgMPH,GustSpeedMaxMPH,PrecipitationSumIn
2012-1-11,10.0,6.8,2.0,5.0,-1.3,-8.0,88,70,46,30.27,30.01,17,5,30,0.00
2012-1-12,26.0,18.5,9.0,1.0,-5.7,-9.0,49,34,22,30.42,30.25,28,14,56,0.00
2012-1-13,31.0,26.6,19.0,4.0,-3.2,-9.0,37,27,19,30.25,30.10,38,19,69,0.00
2012-1-14,49.0,39.0,31.0,8.0,4.2,-2.0,30,24,12,30.20,29.88,37,16,62,0.00
2012-1-15,46.0,40.7,31.0,3.0,-0.7,-7.0,28,17,11,29.88,29.55,27,9,52,0.00
2012-1-16,39.0,26.8,8.0,23.0,11.0,-4.0,88,54,23,29.96,29.42,22,6,41,0.00
2012-1-17,23.0,14.2,6.0,-4.0,-9.6,-13.0,57,35,22,30.30,29.96,29,15,51,0.00
2012-1-18,39.0,30.3,22.0,18.0,7.7,-5.0,55,39,29,30.24,29.76,41,19,76,0.00
2012-1-19,50.0,41.5,34.0,28.0,23.8,18.0,59,49,38,29.77,29.41,39,22,76,0.00
2012-1-20,41.0,36.6,30.0,25.0,19.9,14.0,64,51,42,29.85,29.41,42,18,76,0.00
2012-1-21,55.0,41.6,27.0,27.0,19.3,11.0,67,41,29,29.81,29.08,24,9,51,0.00
2012-1-22,36.0,27.4,24.0,22.0,8.9,-1.0,65,46,31,29.89,29.09,36,20,75,0.00
2012-1-23,40.0,30.6,24.0,13.0,7.8,-2.0,63,39,27,29.96,29.78,32,10,61,0.00
2012-1-24,33.0,23.9,14.0,22.0,16.3,10.0,92,74,49,30.29,29.77,8,2,21,0.00
2012-1-25,44.0,36.5,20.0,19.0,10.6,-3.0,65,35,23,30.26,30.01,38,13,75,0.00
2012-1-26,44.0,36.0,30.0,28.0,14.7,5.0,87,44,23,30.10,29.67,29,12,53,0.00
2012-1-27,30.0,23.7,14.0,23.0,8.9,-4.0,83,54,34,30.32,29.72,27,12,49,0.00
2012-1-28,31.0,24.4,17.0,-3.0,-8.2,-18.0,37,24,16,30.43,30.20,41,20,70,0.00
2012-1-29,42.0,35.2,29.0,15.0,9.6,-6.0,45,34,20,30.33,29.99,33,12,73,0.00
2012-1-30,47.0,39.3,33.0,14.0,10.2,8.0,39,30,21,29.99,29.70,24,8,53,0.00
2012-1-31,41.0,31.8,27.0,12.0,6.5,-12.0,49,36,10,30.08,29.78,20,7,44,0.00
2012-2-1,42.0,32.1,26.0,10.0,6.6,-13.0,48,35,9,30.14,30.03,30,5,51,0.00
2012-2-2,36.0,26.6,21.0,20.0,10.9,4.0,91,54,29,30.09,29.88,8,4,21,0.00
2012-2-3,21.0,18.8,17.0,19.0,16.6,15.0,92,90,88,30.50,30.09,9,4,22,0.00
2012-2-4,25.0,16.7,10.0,22.0,14.3,6.0,92,90,84,30.59,30.50,8,0,15,0.00
2012-2-5,31.0,17.2,6.0,21.0,11.1,3.0,89,78,52,30.59,30.36,7,2,15,0.03
2012-2-6,27.0,18.4,12.0,16.0,11.5,7.0,90,75,49,30.40,30.23,6,2,13,0.01
2012-2-7,15.0,11.9,2.0,12.0,9.4,-1.0,91,89,85,30.50,30.40,4,1,11,0.00
2012-2-8,40.0,30.3,10.0,20.0,10.2,-5.0,91,45,23,30.45,30.16,20,6,35,0.02
2012-2-9,34.0,28.6,23.0,20.0,13.8,9.0,72,54,44,30.19,30.04,21,9,42,0.01
2012-2-10,34.0,23.8,11.0,17.0,11.5,8.0,91,61,40,30.25,30.10,24,6,41,0.00
2012-2-11,26.0,14.2,4.0,17.0,9.4,1.0,89,81,66,30.41,30.25,8,2,13,0.00
2012-2-12,44.0,29.4,12.0,25.0,16.7,9.0,91,62,28,30.28,29.63,11,3,21,0.02
2012-2-13,36.0,28.3,20.0,23.0,17.3,11.0,86,64,38,29.76,29.56,17,4,30,0.01
2012-2-14,39.0,26.7,16.0,19.0,11.6,6.0,77,55,27,29.82,29.68,17,4,32,0.00
2012-2-15,24.0,18.2,12.0,20.0,14.4,8.0,93,85,62,30.27,29.82,7,2,11,0.00
2012-2-16,35.0,23.4,7.0,14.0,9.3,4.0,92,59,31,30.39,30.19,24,8,43,0.00
2012-2-17,36.0,26.1,13.0,18.0,5.7,-7.0,90,47,15,30.20,30.02,12,3,25,0.00
2012-2-18,37.0,25.3,9.0,13.0,4.5,-7.0,89,45,15,30.15,29.96,14,4,27,0.00
2012-2-19,40.0,27.8,20.0,19.0,7.8,0.0,82,45,20,29.96,29.54,10,3,26,0.00
2012-2-20,24.0,20.4,16.0,13.0,1.0,-5.0,69,43,30,30.03,29.59,34,15,61,0.00
2012-2-21,34.0,28.0,21.0,17.0,10.3,4.0,54,47,42,29.99,29.78,48,22,81,0.00
2012-2-22,46.0,40.1,33.0,26.0,20.0,18.0,66,45,35,29.84,29.31,54,25,86,0.01
2012-2-23,36.0,19.7,11.0,28.0,12.8,0.0,92,75,50,30.12,29.27,21,8,49,0.01
2012-2-24,33.0,23.4,14.0,9.0,4.2,0.0,65,44,29,30.38,30.12,24,11,46,0.00
2012-2-25,50.0,34.6,18.0,12.0,5.9,-5.0,59,34,11,30.21,29.56,23,9,48,0.00
2012-2-26,29.0,19.2,9.0,5.0,-6.2,-15.0,59,34,14,30.34,29.70,22,11,47,0.00
2012-2-27,37.0,21.5,3.0,15.0,4.7,-7.0,73,50,31,30.35,29.92,10,4,17,0.00
2012-2-28,38.0,29.4,19.0,24.0,15.9,9.0,83,57,39,29.94,29.42,33,12,60,0.00
2012-2-29,38.0,29.2,20.0,13.0,8.5,3.0,63,42,31,29.91,29.73,39,21,70,0.00
2012-3-1,32.0,25.0,17.0,20.0,13.6,2.0,85,63,30,29.78,29.59,20,4,38,0.00
2012-3-2,23.0,14.9,5.0,8.0,0.0,-7.0,69,52,30,30.19,29.78,28,9,61,0.00
2012-3-3,31.0,20.4,11.0,15.0,3.6,-6.0,55,47,39,30.29,30.16,43,24,72,0.00
2012-3-4,43.0,35.7,30.0,15.0,13.2,1.0,54,40,21,30.27,30.11,42,21,72,0.00
2012-3-5,50.0,44.9,40.0,7.0,3.0,-2.0,21,17,12,30.12,29.59,33,14,55,0.00
2012-3-6,58.0,44.2,34.0,12.0,3.0,-15.0,37,19,5,29.60,29.24,25,8,60,0.00
2012-3-7,35.0,23.3,19.0,26.0,20.2,12.0,94,89,41,30.28,29.33,5,2,14,0.00
2012-3-8,39.0,25.3,13.0,22.0,11.5,-2.0,93,61,22,30.63,30.26,9,2,13,0.00
2012-3-9,50.0,34.4,22.0,9.0,5.6,0.0,54,33,13,30.61,30.17,6,3,16,0.00
2012-3-10,55.0,41.0,28.0,24.0,11.7,-99.9,65,34,14,30.17,29.69,9,4,18,0.00
2012-3-11,49.0,40.1,29.0,28.0,15.2,2.0,78,41,16,29.69,29.54,24,9,54,0.00
2012-3-12,56.0,44.3,35.0,17.0,11.3,9.0,45,27,15,29.82,29.57,29,10,67,0.00
2012-3-13,61.0,46.3,30.0,14.0,4.3,-11.0,49,22,5,29.84,29.66,16,4,27,0.00
2012-3-14,61.0,46.4,31.0,10.0,0.7,-18.0,38,17,4,29.87,29.70,11,4,24,0.00
2012-3-15,59.0,48.8,40.0,22.0,13.6,2.0,46,25,16,29.93,29.78,16,6,31,0.00
2012-3-16,61.0,47.2,32.0,22.0,16.3,10.0,61,32,13,29.83,29.60,16,5,27,0.00
2012-3-17,65.0,49.0,33.0,16.0,11.0,-4.0,47,24,7,29.67,29.38,9,3,19,0.00
2012-3-18,54.0,42.5,33.0,28.0,14.7,-3.0,63,34,19,29.41,29.08,17,6,45,0.00
2012-3-19,36.0,28.2,22.0,9.0,0.3,-13.0,48,31,14,29.68,29.16,15,6,39,0.00
2012-3-20,42.0,29.4,17.0,12.0,6.7,-99.9,70,40,25,30.04,29.67,12,4,27,0.00
2012-3-21,53.0,38.3,28.0,21.0,13.0,-2.0,56,36,25,30.03,29.92,8,3,18,0.00
2012-3-22,57.0,41.0,29.0,21.0,17.3,-99.9,66,42,21,29.97,29.80,6,-5,14,0.00
2012-3-23,65.0,49.5,33.0,22.0,16.5,12.0,50,29,14,29.91,29.77,9,4,17,0.00
2012-3-24,62.0,52.2,38.0,31.0,18.6,10.0,73,28,17,29.91,29.80,9,4,19,0.00
2012-3-25,65.0,46.3,31.0,35.0,30.0,19.0,88,57,18,29.91,29.76,7,3,13,0.00
2012-3-26,65.0,52.2,38.0,32.0,14.1,-13.0,66,29,4,29.76,29.30,24,7,51,0.00
2012-4-4,51.0,40.4,22.0,39.0,31.4,-99.9,96,73,53,29.72,29.62,8,-8,13,0.35
2012-4-5,58.0,45.1,33.0,36.0,25.1,15.0,75,48,22,29.83,29.64,8,3,18,0.06
2012-4-6,60.0,45.8,33.0,27.0,10.4,-29.0,68,28,2,29.80,29.41,23,9,42,0.00
2012-4-7,51.0,35.2,23.0,20.0,5.7,-20.0,59,33,6,30.23,29.80,18,6,34,0.00
2012-4-8,59.0,45.5,30.0,17.0,2.9,-22.0,42,19,4,30.24,30.04,18,4,29,0.00
2012-4-9,60.0,44.3,29.0,27.0,15.3,-4.0,65,34,8,30.04,29.92,14,5,31,0.00
2012-4-10,65.0,48.9,33.0,36.0,23.7,6.0,68,42,10,30.02,29.80,11,3,17,0.00
2012-4-11,58.0,45.8,33.0,44.0,36.6,27.0,90,71,54,29.83,29.57,8,3,27,0.21
2012-4-12,51.0,42.6,34.0,37.0,26.2,15.0,90,56,25,29.58,29.47,19,6,33,0.20
2012-4-13,53.0,40.1,33.0,24.0,14.5,4.0,61,37,15,29.68,29.57,26,7,49,0.00
2012-4-14,48.0,35.9,26.0,30.0,24.4,-99.9,95,67,44,29.60,29.34,8,2,16,0.00
2012-4-15,38.0,31.4,26.0,29.0,26.8,24.0,96,84,61,29.82,29.43,12,3,23,0.15
2012-4-24,70.0,61.7,49.0,30.0,26.9,22.0,42,28,17,29.63,29.55,22,5,42,0.00
2012-4-25,67.0,57.2,44.0,33.0,23.5,11.0,53,28,15,29.74,29.57,11,3,24,0.00
2012-4-26,67.0,54.5,43.0,41.0,34.2,31.0,90,48,27,29.73,29.33,11,3,24,0.10
2012-4-27,48.0,43.2,31.0,40.0,29.1,14.0,91,59,39,29.70,29.31,25,10,55,0.11
2012-4-28,49.0,36.5,26.0,28.0,13.7,-99.9,73,43,19,29.91,29.70,34,12,61,0.01
2012-4-29,51.0,39.1,25.0,32.0,26.8,21.0,86,63,39,29.96,29.84,9,3,18,0.00
2012-4-30,62.0,48.4,32.0,26.0,13.2,3.0,70,29,9,29.96,29.63,21,5,36,0.00
2012-5-1,64.0,53.8,41.0,32.0,22.4,13.0,50,30,19,29.62,29.43,20,6,35,0.00
2012-5-2,63.0,53.5,43.0,37.0,32.7,27.0,66,47,28,29.67,29.50,13,3,21,0.00
2012-5-3,68.0,55.2,41.0,34.0,29.9,22.0,64,40,22,29.72,29.55,9,4,21,0.00
2012-5-4,75.0,60.4,40.0,29.0,22.0,12.0,48,25,12,29.66,29.53,10,3,16,0.00
2012-5-5,70.0,58.1,43.0,36.0,19.4,-99.9,60,25,9,29.74,29.48,9,3,23,0.00
2012-5-6,48.0,39.5,33.0,34.0,22.2,7.0,95,54,27,30.12,29.74,10,2,18,0.33
2012-5-7,38.0,33.3,31.0,35.0,31.9,29.0,97,95,86,30.24,30.12,5,1,10,0.68
2012-5-8,52.0,39.1,28.0,37.0,29.7,25.0,97,72,40,30.25,30.07,7,2,12,0.18
2012-5-9,66.0,51.3,35.0,29.0,23.3,15.0,77,39,18,30.09,29.74,8,3,16,0.02
2012-5-10,71.0,58.3,45.0,30.0,17.9,8.0,38,22,10,29.74,29.47,13,4,22,0.00
2012-5-11,52.0,33.7,30.0,34.0,29.7,25.0,96,86,47,30.22,29.64,10,2,18,0.01
2012-5-12,43.0,35.2,28.0,40.0,32.8,-99.9,97,94,86,30.34,30.21,5,1,12,0.31
2012-5-13,52.0,39.5,30.0,39.0,34.4,29.0,97,83,46,30.27,30.20,6,2,14,0.15
2012-5-14,64.0,48.8,32.0,31.0,18.7,4.0,86,39,10,30.24,30.04,9,3,16,0.01
2012-5-15,67.0,54.6,40.0,29.0,21.7,18.0,52,29,15,30.06,29.89,10,4,18,0.00
2012-5-16,71.0,58.3,45.0,35.0,27.0,18.0,50,31,17,29.91,29.64,19,5,35,0.00
2012-5-17,68.0,57.5,50.0,40.0,29.6,24.0,56,35,22,29.65,29.50,18,6,32,0.01
2012-5-18,69.0,58.7,49.0,34.0,26.9,20.0,48,31,16,29.51,29.28,19,5,34,0.01
2012-5-19,49.0,40.4,34.0,41.0,35.9,-99.9,96,87,49,30.07,29.44,7,2,20,0.30
2012-5-20,61.0,47.6,34.0,41.0,35.4,32.0,95,66,36,30.18,30.05,8,3,16,0.01
2012-5-21,71.0,57.3,43.0,36.0,30.3,22.0,69,40,16,30.05,29.78,15,4,25,0.00
2012-5-22,77.0,61.6,50.0,39.0,26.4,11.0,47,29,8,29.78,29.30,15,4,29,0.00
2012-5-23,57.0,46.1,39.0,43.0,32.5,-99.9,95,64,27,29.42,29.27,15,-12,28,0.51
2012-5-24,59.0,43.1,33.0,34.0,27.2,17.0,92,57,20,29.72,29.39,16,8,36,0.37
2012-5-25,60.0,46.9,36.0,43.0,38.1,30.0,85,72,52,29.72,29.59,10,3,15,0.00
2012-5-26,78.0,59.3,40.0,42.0,30.0,6.0,92,44,6,29.64,29.23,12,5,33,0.00
2012-5-27,60.0,49.4,40.0,26.0,6.1,-8.0,32,18,7,29.69,29.30,28,8,45,0.00
2012-5-28,62.0,50.2,40.0,21.0,14.9,6.0,42,26,11,29.90,29.67,24,11,41,0.00
2012-5-29,65.0,51.6,33.0,31.0,23.0,17.0,61,34,20,29.95,29.78,9,4,18,0.00
2012-5-30,68.0,54.4,41.0,37.0,25.6,13.0,77,37,13,29.83,29.69,21,6,39,0.00
2012-5-31,60.0,55.0,41.0,39.0,37.2,34.0,77,51,44,29.89,29.81,9,4,14,0.00
2012-6-1,69.0,57.6,46.0,52.0,38.4,31.0,77,50,31,29.85,29.66,11,4,34,0.03
2012-6-2,70.0,55.2,42.0,45.0,38.2,-99.9,83,57,28,29.73,29.61,15,5,31,0.08
2012-6-3,76.0,66.1,58.0,41.0,34.6,30.0,40,32,22,29.70,29.61,18,4,33,0.06
2012-6-4,79.0,66.2,50.0,43.0,33.3,27.0,52,31,17,29.71,29.58,12,4,25,0.00
2012-6-5,75.0,63.5,46.0,43.0,37.7,32.0,64,40,24,29.61,29.37,15,5,28,0.00
2012-6-6,73.0,60.8,46.0,54.0,40.6,24.0,79,49,32,29.57,29.44,12,3,23,0.04
2012-6-7,74.0,58.8,47.0,56.0,48.5,41.0,91,70,35,29.72,29.56,10,2,30,0.13
2012-6-8,80.0,65.6,48.0,51.0,37.6,20.0,90,43,16,29.73,29.35,12,3,24,0.01
2012-6-9,86.0,71.1,54.0,24.0,16.5,-99.9,27,14,5,29.38,29.10,15,4,32,0.00
2012-6-10,68.0,56.5,44.0,37.0,26.8,6.0,59,35,11,29.77,29.13,13,6,27,0.00
2012-6-11,65.0,54.5,38.0,30.0,20.0,6.0,42,26,15,29.95,29.77,12,4,29,0.00
2012-6-12,74.0,57.8,38.0,28.0,18.5,1.0,62,26,6,29.93,29.75,16,5,34,0.00
2012-6-13,77.0,65.1,44.0,23.0,16.3,5.0,37,17,7,29.78,29.47,12,4,27,0.00
2012-6-14,71.0,62.6,55.0,37.0,26.5,-99.9,38,26,14,29.62,29.47,12,-4,30,0.00
2012-6-15,72.0,61.3,51.0,49.0,38.4,27.0,76,47,19,29.71,29.57,14,3,24,0.01
2012-6-16,70.0,56.5,45.0,47.0,39.5,-99.9,77,56,29,29.88,29.71,10,4,23,0.01
2012-6-17,82.0,68.9,50.0,33.0,23.4,2.0,44,21,5,29.82,29.40,25,10,53,0.00
2012-6-18,88.0,76.0,60.0,25.0,15.5,7.0,25,11,6,29.40,29.16,18,7,37,0.00
2012-6-19,82.0,74.0,61.0,35.0,20.4,9.0,37,15,8,29.26,29.16,21,8,39,0.00
2012-6-20,61.0,54.0,45.0,45.0,39.2,19.0,92,59,28,29.99,29.26,8,3,15,0.00
2012-6-21,76.0,61.3,44.0,46.0,38.8,31.0,61,44,33,30.01,29.70,9,3,16,0.00
2012-6-22,88.0,74.0,48.0,43.0,19.9,3.0,61,19,4,29.70,29.33,16,5,27,0.00
2012-6-23,90.0,77.0,62.0,26.0,19.0,10.0,20,12,6,29.45,29.34,9,3,19,0.00
2012-6-24,87.0,78.3,65.0,37.0,26.2,18.0,34,15,11,29.57,29.45,12,4,39,0.00
2012-6-25,90.0,74.9,56.0,37.0,30.9,18.0,49,23,8,29.62,29.42,13,4,23,0.00
2012-6-26,84.0,74.6,62.0,52.0,34.6,27.0,66,25,15,29.46,29.33,17,6,29,0.04
2012-6-27,80.0,69.1,55.0,53.0,41.8,35.0,72,40,22,29.67,29.40,18,4,31,0.09
2012-6-28,79.0,67.2,55.0,48.0,40.9,35.0,70,40,25,29.82,29.65,16,5,35,0.01
2012-6-29,82.0,73.4,66.0,39.0,35.2,31.0,32,25,17,29.72,29.56,25,7,56,0.01
2012-6-30,82.0,71.7,56.0,39.0,32.4,29.0,39,24,16,29.63,29.55,10,3,26,0.00
2012-7-1,89.0,72.9,52.0,45.0,31.0,22.0,48,24,10,29.60,29.44,21,4,37,0.00
2012-7-2,86.0,71.0,56.0,52.0,37.8,26.0,84,35,13,29.61,29.48,9,3,17,0.08
2012-7-3,78.0,66.6,57.0,51.0,43.3,35.0,74,46,22,29.61,29.55,12,4,22,0.09
2012-7-4,83.0,73.8,63.0,42.0,36.6,33.0,41,27,18,29.57,29.48,8,2,18,0.01
2012-7-5,79.0,67.9,58.0,59.0,50.5,39.0,82,55,35,29.57,29.44,9,3,25,0.04
2012-7-6,71.0,61.1,52.0,55.0,49.1,43.0,92,67,45,29.92,29.57,13,3,25,1.34
2012-7-7,67.0,57.4,51.0,56.0,52.5,49.0,96,84,64,30.01,29.88,10,2,18,1.03
2012-7-8,63.0,55.8,52.0,56.0,53.0,51.0,97,91,74,30.04,29.94,4,1,16,0.54
2012-7-9,70.0,58.6,51.0,58.0,53.1,50.0,97,83,56,30.04,29.96,6,1,12,0.31
2012-7-10,71.0,59.8,49.0,56.0,50.2,46.0,94,73,45,29.99,29.86,7,2,14,0.00
2012-7-11,75.0,63.6,49.0,50.0,44.8,38.0,84,54,27,29.91,29.77,7,2,11,0.00
2012-7-12,79.0,67.7,53.0,48.0,41.4,38.0,64,40,26,29.84,29.74,6,3,15,0.00
2012-7-13,83.0,68.9,55.0,46.0,38.8,30.0,60,37,16,29.80,29.72,9,4,17,0.00
2012-7-14,80.0,68.0,54.0,46.0,40.1,35.0,54,37,21,29.75,29.65,10,3,24,0.00
2012-7-15,80.0,68.0,56.0,51.0,43.5,40.0,64,42,26,29.68,29.55,21,3,33,0.00
2012-7-16,78.0,62.7,52.0,51.0,45.0,40.0,88,55,32,29.70,29.57,8,3,22,0.23
2012-7-17,75.0,65.7,56.0,57.0,45.6,41.0,91,50,34,29.70,29.59,13,4,27,0.26
2012-7-18,79.0,66.6,53.0,49.0,43.0,37.0,71,45,24,29.81,29.70,10,3,18,0.25
2012-7-19,82.0,70.6,56.0,47.0,41.0,37.0,58,36,20,29.82,29.72,11,4,18,0.02
2012-7-20,86.0,73.9,61.0,46.0,39.5,33.0,48,30,16,29.77,29.67,12,4,21,0.00
2012-7-21,85.0,70.7,54.0,46.0,41.1,37.0,56,36,20,29.78,29.65,17,4,32,0.01
2012-7-22,82.0,66.9,55.0,54.0,45.5,42.0,66,48,27,29.82,29.71,14,3,27,0.01
2012-7-23,82.0,67.6,55.0,50.0,44.6,40.0,65,45,24,29.81,29.65,17,3,32,0.00
2012-7-24,79.0,68.3,55.0,51.0,43.8,40.0,84,43,28,29.69,29.51,11,3,27,0.36
2012-7-25,76.0,64.1,51.0,53.0,47.0,39.0,91,56,30,29.73,29.54,15,4,28,0.36
2012-7-26,77.0,63.8,50.0,52.0,46.7,41.0,92,56,36,29.88,29.71,9,3,14,0.00
2012-7-27,77.0,62.5,53.0,58.0,46.2,40.0,91,57,34,29.89,29.75,13,4,29,0.26
2012-7-28,76.0,66.5,57.0,51.0,45.5,42.0,65,48,31,29.88,29.78,10,3,26,0.01
2012-7-29,79.0,63.3,54.0,60.0,48.4,43.0,90,61,33,29.84,29.74,11,3,18,0.34
2012-7-30,73.0,61.0,53.0,60.0,51.8,48.0,91,73,45,29.90,29.80,7,2,14,0.53
2012-7-31,82.0,67.5,54.0,52.0,47.6,40.0,88,52,24,29.88,29.70,16,4,30,0.01
2012-8-1,77.0,66.4,55.0,56.0,46.8,41.0,92,53,28,29.76,29.64,12,3,30,0.42
2012-8-2,78.0,65.1,56.0,55.0,44.6,39.0,84,49,32,29.75,29.64,11,3,23,0.18
2012-8-3,79.0,70.5,62.0,45.0,31.9,23.0,54,25,14,29.64,29.55,24,8,51,0.13
2012-8-4,68.0,56.6,46.0,47.0,44.1,40.0,89,65,38,30.01,29.63,8,3,16,0.00
2012-8-5,81.0,64.9,48.0,47.0,39.9,32.0,76,46,20,30.01,29.86,9,3,16,0.00
2012-8-6,81.0,71.4,63.0,44.0,38.3,32.0,49,31,18,29.86,29.76,15,6,30,0.00
2012-8-7,80.0,70.2,60.0,45.0,40.7,33.0,52,35,20,29.84,29.74,9,3,20,0.00
2012-8-8,81.0,67.8,54.0,42.0,32.1,27.0,46,29,15,29.91,29.83,9,4,19,0.00
2012-8-9,79.0,66.3,53.0,43.0,36.6,31.0,48,34,22,29.91,29.76,7,3,15,0.00
2012-8-10,79.0,66.0,51.0,46.0,42.4,39.0,72,45,25,29.82,29.67,14,3,22,0.00
2012-8-11,78.0,65.0,51.0,50.0,41.8,-99.9,88,47,20,29.81,29.62,15,5,39,0.30
2012-8-12,73.0,59.9,47.0,45.0,39.3,34.0,85,52,27,29.96,29.81,10,4,21,0.30
2012-8-13,72.0,59.7,50.0,46.0,40.8,36.0,63,50,28,29.95,29.75,22,4,38,0.00
2012-8-14,80.0,66.5,52.0,41.0,34.9,23.0,62,34,14,29.79,29.63,15,4,30,0.00
2012-8-15,80.0,66.8,52.0,46.0,36.8,27.0,74,36,15,29.79,29.55,12,5,23,0.00
2012-8-16,63.0,53.0,44.0,49.0,44.5,40.0,88,74,53,29.98,29.78,9,2,16,0.00
2012-8-17,76.0,60.4,41.0,45.0,39.1,34.0,95,52,25,29.97,29.77,9,3,20,0.00
2012-8-18,69.0,58.3,49.0,42.0,37.0,33.0,74,47,30,29.91,29.77,8,3,17,0.00
2012-8-19,70.0,57.1,44.0,35.0,32.0,25.0,64,42,20,29.90,29.83,10,3,16,0.00
2012-8-20,70.0,59.4,49.0,46.0,33.6,26.0,78,40,20,29.85,29.73,15,4,29,0.00
2012-8-21,75.0,61.5,49.0,41.0,36.7,32.0,67,43,24,29.86,29.75,10,3,17,0.00
2012-8-22,75.0,63.8,52.0,49.0,39.1,31.0,75,41,27,29.76,29.61,18,6,34,0.01
2012-8-23,68.0,59.1,49.0,52.0,48.1,43.0,91,69,47,29.71,29.63,6,2,11,0.04
2012-8-24,72.0,61.5,50.0,48.0,41.3,36.0,74,50,28,29.66,29.57,11,3,34,0.01
2012-8-25,69.0,61.1,50.0,44.0,38.6,32.0,64,44,33,29.75,29.58,15,6,32,0.01
2012-8-26,81.0,66.4,51.0,40.0,26.7,20.0,65,25,12,29.87,29.74,8,3,16,0.00
2012-8-27,80.0,67.6,53.0,53.0,37.4,28.0,70,34,22,29.87,29.79,12,3,28,0.07
2012-8-28,80.0,66.7,55.0,58.0,41.6,38.0,79,41,26,29.87,29.78,9,3,15,0.02
2012-8-29,83.0,68.9,56.0,50.0,40.5,37.0,62,37,20,29.78,29.61,18,4,35,0.04
2012-8-30,80.0,68.3,59.0,45.0,40.2,38.0,49,37,22,29.72,29.59,12,3,26,0.04
2012-8-31,82.0,65.9,51.0,41.0,35.5,28.0,62,36,14,29.77,29.69,10,4,19,0.00
2012-9-1,78.0,66.0,53.0,55.0,39.4,32.0,87,39,22,29.74,29.63,9,3,18,0.20
2012-9-2,76.0,65.6,56.0,44.0,41.1,33.0,58,42,25,29.77,29.70,14,4,27,0.02
2012-9-3,74.0,62.9,53.0,44.0,37.3,28.0,68,41,21,29.83,29.74,28,7,46,0.00
2012-9-4,76.0,63.3,51.0,34.0,26.6,17.0,48,28,14,29.83,29.70,20,6,36,0.00
2012-9-5,73.0,59.2,40.0,28.0,22.9,17.0,47,26,15,29.87,29.74,12,4,19,0.00
2012-9-6,78.0,65.4,52.0,28.0,19.4,15.0,25,18,12,29.83,29.65,17,5,30,0.00
2012-9-7,65.0,51.3,43.0,45.0,40.0,28.0,91,67,25,30.13,29.72,11,2,22,0.04
2012-9-8,68.0,52.4,38.0,41.0,34.8,26.0,91,57,24,30.21,30.09,7,3,12,0.01
2012-9-9,75.0,59.4,43.0,30.0,26.2,20.0,50,31,13,30.13,29.80,10,4,17,0.00
2012-9-10,77.0,68.7,63.0,33.0,26.4,22.0,31,21,13,29.80,29.54,20,8,34,0.00
2012-9-11,74.0,63.3,50.0,49.0,36.2,29.0,92,40,24,29.66,29.51,12,3,19,0.15
2012-9-12,51.0,46.2,43.0,49.0,45.1,42.0,98,96,88,30.19,29.65,5,2,14,0.90
2012-9-13,57.0,44.6,36.0,43.0,38.3,31.0,98,83,38,30.37,30.19,5,1,10,0.12
2012-10-3,69.0,53.6,29.0,31.0,24.1,16.0,90,41,13,29.99,29.57,28,9,45,0.00
2012-10-4,35.0,29.4,26.0,26.0,24.2,23.0,89,81,67,30.26,29.97,6,2,13,0.00
2012-10-5,37.0,27.4,25.0,32.0,25.2,22.0,95,91,79,30.29,30.15,5,1,10,0.04
2012-10-6,27.0,24.4,22.0,26.0,23.4,21.0,95,95,93,30.33,30.20,5,1,10,0.01
2012-10-7,43.0,31.0,17.0,28.0,18.1,1.0,96,66,18,30.30,30.09,17,4,34,0.01
2012-10-8,60.0,49.5,41.0,7.0,2.1,-2.0,23,15,8,30.09,29.71,25,12,45,0.01
2012-10-9,50.0,38.6,31.0,33.0,24.7,8.0,89,63,21,30.06,29.67,12,2,30,0.00
2012-10-10,64.0,45.9,28.0,28.0,23.7,20.0,90,49,19,30.10,29.90,22,5,37,0.00
2012-10-11,58.0,46.3,36.0,34.0,29.3,23.0,81,52,35,30.02,29.85,9,3,15,0.00
2012-10-12,62.0,48.0,33.0,42.0,34.3,29.0,85,61,31,29.99,29.68,10,2,26,0.02
2012-10-13,49.0,42.6,38.0,36.0,29.0,23.0,89,59,48,30.01,29.64,26,11,47,0.08
2012-10-14,53.0,46.9,41.0,33.0,29.7,27.0,71,52,39,30.14,30.01,21,8,35,0.07
2012-10-15,63.0,54.7,46.0,29.0,20.9,13.0,48,28,15,30.01,29.61,29,8,46,0.00
2012-10-16,62.0,53.8,36.0,38.0,27.0,17.0,88,38,18,29.67,29.28,28,13,56,0.06
2012-10-17,43.0,37.6,32.0,33.0,10.6,0.0,87,34,17,29.91,29.39,31,19,56,0.06
2012-10-18,51.0,41.9,33.0,14.0,10.0,7.0,36,27,20,30.03,29.91,30,14,51,0.00
2012-10-19,61.0,51.9,46.0,20.0,16.2,10.0,34,25,15,29.98,29.65,27,14,48,0.00
2012-10-20,69.0,56.0,45.0,17.0,14.6,11.0,30,20,12,29.67,29.42,25,7,40,0.00
2012-10-21,63.0,49.2,38.0,26.0,18.8,13.0,62,32,15,29.70,29.48,7,3,16,0.00
2012-10-22,58.0,44.6,30.0,33.0,25.5,17.0,80,50,24,29.74,29.58,10,3,19,0.00
2012-10-23,64.0,49.5,35.0,27.0,13.2,-3.0,59,28,7,29.66,29.53,15,4,36,0.00
2012-10-24,41.0,32.9,21.0,32.0,27.4,19.0,95,81,60,29.97,29.55,7,2,12,0.00
2012-10-25,26.0,21.9,20.0,23.0,19.9,18.0,94,92,86,30.32,29.96,1,0,4,0.00
2012-10-26,29.0,21.7,15.0,26.0,18.5,12.0,93,88,56,30.52,30.25,8,1,14,0.13
2012-10-27,39.0,31.4,17.0,19.0,15.0,12.0,86,52,35,30.27,30.13,32,9,51,0.02
2012-10-28,48.0,42.9,32.0,28.0,23.4,15.0,60,46,39,30.13,29.91,21,6,48,0.07
2012-10-29,57.0,48.6,44.0,28.0,26.0,23.0,52,42,30,30.00,29.89,18,7,35,0.01
2012-10-30,57.0,49.7,43.0,27.0,23.1,20.0,44,35,24,29.97,29.87,18,7,33,0.00
2012-10-31,59.0,49.6,40.0,27.0,22.3,18.0,54,35,21,29.95,29.89,12,4,24,0.00
2012-11-1,60.0,47.0,34.0,24.0,17.7,12.0,61,34,17,29.94,29.80,13,4,27,0.00
2012-11-2,52.0,43.3,29.0,26.0,19.5,14.0,77,41,26,30.00,29.78,15,5,26,0.00
2012-11-3,51.0,39.6,27.0,24.0,20.1,16.0,81,49,25,30.13,30.00,15,4,29,0.00
2012-11-4,50.0,44.3,29.0,26.0,18.8,10.0,78,37,24,30.15,30.02,22,10,36,0.00
2012-11-5,52.0,44.3,27.0,28.0,26.0,22.0,88,51,36,30.14,30.01,21,11,42,0.00
2012-11-6,57.0,50.4,45.0,27.0,22.2,17.0,46,34,22,30.08,29.96,16,7,35,0.00
2012-11-7,62.0,52.2,37.0,19.0,13.5,7.0,42,22,11,29.96,29.70,16,4,30,0.00
2012-11-8,52.0,43.4,27.0,26.0,20.2,14.0,80,42,23,29.73,29.61,20,4,39,0.00
2012-11-9,56.0,44.0,27.0,30.0,20.8,13.0,76,41,25,29.64,29.38,11,4,27,0.00
2012-11-10,44.0,30.8,15.0,30.0,21.2,10.0,93,71,35,29.68,29.20,15,5,31,0.00
2012-11-11,20.0,15.8,13.0,13.0,2.1,-5.0,91,56,35,30.34,29.68,30,12,61,0.00
2012-11-12,38.0,28.0,15.0,10.0,-1.1,-8.0,45,29,15,30.49,30.30,29,12,62,0.00
2012-11-13,40.0,33.5,24.0,18.0,10.1,-10.0,69,39,14,30.29,30.14,24,7,44,0.00
2012-11-14,47.0,37.3,23.0,14.0,7.5,-99.9,68,31,17,30.22,30.06,17,6,36,0.00
2012-11-15,34.0,27.8,20.0,27.0,20.5,12.0,91,75,43,30.35,30.11,8,2,13,0.00
2012-11-16,53.0,38.1,20.0,20.0,11.3,2.0,87,37,15,30.34,30.04,11,3,22,0.00
2012-11-17,51.0,41.2,31.0,26.0,23.2,20.0,66,49,34,30.04,29.92,17,5,29,0.00
2012-11-18,48.0,39.1,30.0,25.0,22.0,19.0,68,51,34,30.02,29.88,18,5,34,0.00
2012-11-19,46.0,39.3,33.0,24.0,20.1,16.0,54,46,36,30.16,30.01,14,5,31,0.00
2012-11-20,57.0,46.1,35.0,18.0,15.5,13.0,44,30,20,30.14,29.93,16,5,31,0.00
2012-11-21,63.0,44.6,32.0,13.0,6.4,-4.0,42,23,7,29.93,29.76,11,3,20,0.00
2012-11-22,48.0,40.3,26.0,25.0,15.5,8.0,66,38,22,30.29,29.75,21,8,41,0.00
2012-11-23,49.0,36.9,15.0,10.0,8.3,5.0,73,35,18,30.42,30.18,18,8,41,0.00
2012-11-24,54.0,48.2,44.0,11.0,6.7,0.0,25,18,13,30.18,29.76,30,15,56,0.00
2012-11-25,51.0,43.7,31.0,13.0,4.7,-4.0,44,21,13,29.78,29.60,21,8,42,0.00
2012-11-26,40.0,24.9,18.0,21.0,16.5,-7.0,93,75,15,30.29,29.77,13,2,24,0.00
2012-11-27,51.0,41.2,31.0,3.0,-8.9,-27.0,24,13,4,30.29,30.11,19,4,36,0.00
2012-11-28,52.0,42.3,30.0,10.0,-1.5,-10.0,24,16,8,30.12,29.91,15,5,31,0.00
2012-11-29,53.0,45.4,41.0,21.0,17.0,7.0,40,32,22,29.91,29.81,19,8,41,0.00
2012-11-30,54.0,44.6,33.0,20.0,17.2,14.0,45,34,22,29.90,29.67,16,5,34,0.00
2012-12-1,52.0,44.9,37.0,25.0,18.5,8.0,50,36,20,29.86,29.67,24,8,42,0.00
2012-12-2,60.0,43.7,30.0,22.0,6.9,-14.0,39,24,5,29.86,29.50,27,4,48,0.00
2012-12-3,46.0,39.3,33.0,26.0,10.5,-6.0,56,32,13,30.05,29.49,25,9,54,0.00
2012-12-4,47.0,39.3,29.0,21.0,5.3,-6.0,37,25,16,30.25,30.04,22,6,49,0.00
2012-12-5,56.0,47.7,40.0,27.0,22.5,13.0,53,38,19,30.09,29.67,19,7,44,0.00
2012-12-6,43.0,34.6,27.0,30.0,22.9,-99.9,87,66,48,29.80,29.67,19,6,36,0.01
2012-12-7,41.0,33.0,22.0,21.0,17.8,13.0,81,55,32,29.84,29.70,21,8,41,0.01
2012-12-8,35.0,28.0,16.0,22.0,14.0,2.0,88,56,38,29.84,29.60,24,9,45,0.00
2012-12-9,16.0,9.8,1.0,4.0,-1.9,-11.0,82,59,37,30.35,29.83,24,6,42,0.00
2012-12-10,22.0,16.7,11.0,11.0,-0.0,-11.0,82,48,36,30.23,30.07,33,15,56,0.00
2012-12-11,31.0,21.6,10.0,12.0,7.8,5.0,88,57,39,30.14,29.88,34,12,59,0.00
2012-12-12,48.0,35.8,28.0,10.0,7.4,2.0,41,31,19,29.88,29.74,28,7,55,0.00
2012-12-13,46.0,34.4,26.0,10.0,6.6,3.0,46,31,18,29.96,29.82,7,3,15,0.00
2012-12-14,39.0,32.1,24.0,22.0,11.0,5.0,60,42,27,29.84,29.44,15,3,29,0.00
2012-12-15,35.0,31.4,25.0,20.0,14.6,9.0,59,50,35,29.66,29.56,15,6,32,0.00
2012-12-16,29.0,24.3,18.0,14.0,8.0,3.0,65,50,37,29.84,29.62,19,8,40,0.00
2012-12-17,34.0,29.5,23.0,19.0,12.1,6.0,67,48,42,29.81,29.59,36,18,62,0.00
2012-12-18,31.0,24.9,17.0,23.0,16.7,10.0,88,71,51,29.74,29.63,14,2,22,0.00
2012-12-19,17.0,10.5,3.0,14.0,6.3,-8.0,91,84,48,30.35,29.66,20,2,46,0.00
2012-12-20,35.0,24.5,8.0,0.0,-5.5,-11.0,50,27,16,30.56,30.32,36,18,65,0.00
2012-12-21,46.0,34.6,26.0,8.0,-0.7,-7.0,36,23,12,30.33,30.04,14,4,32,0.00
2012-12-22,45.0,33.3,23.0,9.0,-6.2,-20.0,38,20,6,30.05,29.88,13,5,33,0.00
2012-12-23,37.0,32.7,23.0,14.0,3.6,-19.0,51,31,8,29.90,29.75,31,17,65,0.00
2012-12-24,35.0,24.8,11.0,18.0,11.5,5.0,88,59,40,29.87,29.66,9,2,16,0.00
2012-12-25,14.0,7.6,-3.0,10.0,4.0,-7.0,91,85,77,30.34,29.87,6,1,13,0.00
2012-12-26,35.0,20.2,5.0,20.0,11.5,1.0,88,70,37,30.27,29.67,6,2,11,0.04
2012-12-27,25.0,15.0,2.0,13.0,8.4,-1.0,90,76,42,30.01,29.67,13,2,27,0.01
2012-12-28,19.0,14.4,3.0,6.0,-1.4,-5.0,90,50,38,30.31,30.00,21,10,36,0.00
2012-12-29,37.0,20.3,4.0,2.0,-6.6,-13.0,49,32,11,30.36,30.01,6,2,14,0.00
2012-12-30,37.0,23.4,14.0,8.0,-1.3,-9.0,71,37,14,30.04,29.90,10,3,24,0.00
2012-12-31,17.0,11.5,5.0,12.0,6.9,1.0,89,82,70,30.22,29.96,4,1,12,0.00
2013-1-1,19.0,13.7,2.0,4.0,-1.6,-5.0,88,51,35,30.37,30.22,18,8,36,0.00